User: anonymous   Login
Location: Cahoon Acres
(40.8736°N, 111.8994°W)
Time: 22:23:59
(UTC+00:00)
Language:

A-11 Canister half - Orbit

View from above orbital plane
View from above orbital plane
View from above satellite
View from above satellite

Ground track
Ground track

The orbit data is extracted from the following two-line orbital elements,

1    53U 60009E   20144.95948202 -.00000163 +00000-0 -76040-3 0  9995
2    53 047.2777 334.5232 0098812 009.6705 350.5959 12.17241275665589
Epoch (UTC): 23 May 2020 23:01:39
Eccentricity: 0.0098812
inclination: 47.2777°
perigee height: 1525 km
apogee height: 1683 km
right ascension of ascending node: 334.5232°
argument of perigee: 9.6705°
revolutions per day: 12.17241275
mean anomaly at epoch: 350.5959°
orbit number at epoch: 66558

The dashed part of the orbit path shows where the satellite is in the earth's shadow,  

DLR